This is the latest recevied weather packets stored in our database for station/object K4ZZR. If no packets are shown the sender has not sent any weather packets the latest 10 day(s).
| Time | Temp. | Humidity | Pressure | Rain* | Wind** | Luminosity | Snow |
|---|---|---|---|---|---|---|---|
| 1777892240 | 22.78° C | 90% | 1013.7 hPa | 0 mm | - | 9 W/m² | - |
| 1777890422 | 21.11° C | 99% | 1013.7 hPa | 0 mm | - | 0 W/m² | - |
| 1777890118 | 21.11° C | 99% | 1013.9 hPa | 0 mm | - | 0 W/m² | - |
| 1777889815 | 21.11° C | 99% | 1013.7 hPa | 0 mm | - | 0 W/m² | - |
| 1777889512 | 21.11° C | 99% | 1013.7 hPa | 0.51 mm | - | 0 W/m² | - |
| 1777889210 | 21.11° C | 99% | 1013.9 hPa | 7.11 mm | - | 0 W/m² | - |
| 1777888908 | 21.67° C | 99% | 1013.6 hPa | 16.76 mm | - | 0 W/m² | - |
| 1777888604 | 21.67° C | 98% | 1013.6 hPa | 8.38 mm | - | 0 W/m² | - |
| 1777888300 | 22.22° C | 96% | 1013.4 hPa | 0 mm | - | 0 W/m² | - |
| 1777887997 | 22.78° C | 95% | 1013.4 hPa | 0 mm | - | 0 W/m² | - |
| 1777887391 | 23.33° C | 92% | 1013.3 hPa | 0 mm | - | 0 W/m² | - |
| 1777887086 | 22.78° C | 92% | 1013.5 hPa | 0 mm | - | 0 W/m² | - |
| 1777886782 | 22.78° C | 94% | 1013.4 hPa | 0 mm | - | 0 W/m² | - |
| 1777886479 | 22.78° C | 94% | 1013.3 hPa | 0 mm | - | 0 W/m² | - |
| 1777886177 | 22.78° C | 95% | 1013.3 hPa | 0 mm | - | 0 W/m² | - |
| 1777885874 | 22.78° C | 93% | 1013.3 hPa | 0 mm | - | 0 W/m² | - |
| 1777885573 | 22.78° C | 93% | 1013.2 hPa | 0 mm | - | 0 W/m² | - |
| 1777885271 | 22.78° C | 94% | 1013.1 hPa | 0 mm | - | 0 W/m² | - |
| 1777884969 | 22.78° C | 95% | 1013 hPa | 0 mm | - | 0 W/m² | - |
| 1777884664 | 22.78° C | 95% | 1013.2 hPa | 0 mm | - | 0 W/m² | - |
| 1777884361 | 22.78° C | 96% | 1013.1 hPa | 0 mm | - | 0 W/m² | - |
| 1777884056 | 22.78° C | 95% | 1013 hPa | 0 mm | - | 0 W/m² | - |
| 1777883755 | 22.78° C | 96% | 1012.8 hPa | 0 mm | - | 0 W/m² | - |
| 1777883451 | 22.78° C | 96% | 1012.9 hPa | 0 mm | - | 0 W/m² | - |
| 1777883147 | 22.78° C | 96% | 1012.9 hPa | 0 mm | - | 0 W/m² | - |
* Rain latest hour (hover to see other rain measurements)
** Current wind speed in m/s (hover to see current wind gust speed)